When you browse on this site, cookies collect data to enhance your experience and personalize the content and advertising you see.
Visit our Privacy Policy to learn more. By continuing to use the site, you agree to this use of cookies and data.
  • Em Portugal
  • Lista de países
  • Para 7 dias
  • Temperatura da água
  • Mapas de satélite
  • Mapa do tempo
  • Widgets de tempo
  • user-avatar
    Iniciar Sessão

    Previsão horária em Bochkary

    Hoje, 20 Janeiro, Domingo

    Tempo Temperatura Precipitação Vento Pressão Humidade
    00:00 -8°C° 0 mm 5 m/s 747 mmHg 90%
    01:00 -8°C° 0 mm 5 m/s 747 mmHg 90%
    02:00 -8°C° 0 mm 5 m/s 747 mmHg 89%
    03:00 -7°C° 0 mm 5 m/s 746 mmHg 89%
    04:00 -8°C° 0 mm 6 m/s 746 mmHg 88%
    05:00 -8°C° 0 mm 6 m/s 745 mmHg 87%
    06:00 -8°C° 0 mm 6 m/s 745 mmHg 88%
    07:00 -8°C° 0 mm 6 m/s 745 mmHg 88%
    08:00 -8°C° 0 mm 6 m/s 745 mmHg 88%
    09:00 -6°C° 0.1 mm 6 m/s 744 mmHg 88%
    10:00 -6°C° 0.1 mm 6 m/s 744 mmHg 87%
    11:00 -7°C° 0.1 mm 7 m/s 744 mmHg 87%
    12:00 -6°C° 0.2 mm 6 m/s 744 mmHg 87%
    13:00 -5°C° 0.2 mm 6 m/s 744 mmHg 88%
    14:00 -5°C° 0.2 mm 6 m/s 744 mmHg 88%
    15:00 -5°C° 0.2 mm 5 m/s 744 mmHg 90%
    16:00 -5°C° 0.2 mm 5 m/s 744 mmHg 91%
    17:00 -5°C° 0.2 mm 4 m/s 744 mmHg 92%
    18:00 -5°C° 0.1 mm 3 m/s 744 mmHg 93%
    19:00 -6°C° 0.1 mm 3 m/s 744 mmHg 93%
    20:00 -6°C° 0.1 mm 3 m/s 744 mmHg 93%
    21:00 -8°C° 0 mm 3 m/s 744 mmHg 93%
    22:00 -9°C° 0 mm 3 m/s 744 mmHg 93%
    23:00 -12°C° 0 mm 3 m/s 744 mmHg 93%

    Amanhã, 21 Janeiro, Segunda-feira

    Tempo Temperatura Precipitação Vento Pressão Humidade
    00:00 -12°C° 0 mm 3 m/s 744 mmHg 93%
    01:00 -13°C° 0 mm 3 m/s 745 mmHg 93%
    02:00 -13°C° 0 mm 3 m/s 745 mmHg 93%
    03:00 -13°C° 0 mm 3 m/s 745 mmHg 93%
    04:00 -14°C° 0 mm 3 m/s 745 mmHg 94%
    05:00 -14°C° 0 mm 3 m/s 745 mmHg 94%
    06:00 -13°C° 0 mm 3 m/s 745 mmHg 95%
    07:00 -13°C° 0 mm 3 m/s 745 mmHg 95%
    08:00 -13°C° 0 mm 3 m/s 745 mmHg 95%
    09:00 -12°C° 0 mm 3 m/s 746 mmHg 94%
    10:00 -11°C° 0 mm 4 m/s 746 mmHg 94%
    11:00 -10°C° 0 mm 4 m/s 747 mmHg 93%
    12:00 -10°C° 0 mm 4 m/s 747 mmHg 90%
    13:00 -10°C° 0 mm 4 m/s 747 mmHg 87%
    14:00 -10°C° 0 mm 4 m/s 747 mmHg 84%
    15:00 -11°C° 0 mm 4 m/s 747 mmHg 87%
    16:00 -13°C° 0 mm 3 m/s 747 mmHg 89%
    17:00 -14°C° 0 mm 3 m/s 747 mmHg 92%
    18:00 -14°C° 0 mm 2 m/s 748 mmHg 93%
    19:00 -14°C° 0 mm 2 m/s 748 mmHg 95%
    20:00 -15°C° 0 mm 2 m/s 748 mmHg 96%
    21:00 -12°C° 0 mm 1 m/s 748 mmHg 97%
    22:00 -12°C° 0 mm 1 m/s 749 mmHg 97%
    23:00 -11°C° 0 mm 1 m/s 749 mmHg 97%

    Depois de amanhã, 22 Janeiro, Terça-feira

    Tempo Temperatura Precipitação Vento Pressão Humidade
    00:00 -11°C° 0 mm 1 m/s 749 mmHg 98%
    01:00 -11°C° 0 mm 1 m/s 749 mmHg 98%
    02:00 -11°C° 0 mm 0 m/s 749 mmHg 98%
    03:00 -11°C° 0 mm 1 m/s 749 mmHg 98%
    04:00 -11°C° 0 mm 1 m/s 749 mmHg 97%
    05:00 -11°C° 0 mm 1 m/s 749 mmHg 97%
    06:00 -11°C° 0 mm 1 m/s 749 mmHg 97%
    07:00 -11°C° 0 mm 1 m/s 749 mmHg 97%
    08:00 -12°C° 0 mm 1 m/s 749 mmHg 97%
    09:00 -13°C° 0 mm 2 m/s 749 mmHg 96%
    10:00 -12°C° 0 mm 2 m/s 749 mmHg 96%
    11:00 -10°C° 0 mm 2 m/s 749 mmHg 95%
    12:00 -9°C° 0 mm 2 m/s 749 mmHg 95%
    13:00 -9°C° 0 mm 2 m/s 749 mmHg 94%
    14:00 -9°C° 0 mm 3 m/s 748 mmHg 93%
    15:00 -8°C° 0 mm 2 m/s 748 mmHg 94%
    16:00 -8°C° 0 mm 2 m/s 748 mmHg 95%
    17:00 -8°C° 0 mm 2 m/s 748 mmHg 96%
    18:00 -8°C° 0 mm 2 m/s 748 mmHg 96%
    19:00 -8°C° 0 mm 2 m/s 748 mmHg 96%
    20:00 -8°C° 0 mm 2 m/s 748 mmHg 96%
    21:00 -8°C° 0 mm 2 m/s 748 mmHg 96%
    22:00 -8°C° 0 mm 3 m/s 748 mmHg 96%
    23:00 -8°C° 0 mm 3 m/s 748 mmHg 96%

    23 Janeiro, Quarta-feira

    Tempo Temperatura Precipitação Vento Pressão Humidade
    00:00 -8°C° 0 mm 3 m/s 748 mmHg 96%
    01:00 -8°C° 0 mm 3 m/s 748 mmHg 95%
    02:00 -9°C° 0 mm 4 m/s 748 mmHg 95%
    03:00 -10°C° 0 mm 4 m/s 748 mmHg 95%
    04:00 -10°C° 0 mm 4 m/s 748 mmHg 95%
    05:00 -11°C° 0 mm 4 m/s 747 mmHg 95%
    06:00 -13°C° 0 mm 3 m/s 747 mmHg 95%
    07:00 -14°C° 0 mm 3 m/s 748 mmHg 95%
    08:00 -16°C° 0 mm 3 m/s 748 mmHg 95%
    09:00 -16°C° 0 mm 3 m/s 748 mmHg 95%
    10:00 -16°C° 0 mm 3 m/s 748 mmHg 94%
    11:00 -16°C° 0 mm 3 m/s 748 mmHg 94%
    12:00 -15°C° 0 mm 3 m/s 748 mmHg 94%
    13:00 -14°C° 0 mm 3 m/s 748 mmHg 94%
    14:00 -13°C° 0 mm 3 m/s 747 mmHg 94%
    15:00 -14°C° 0 mm 3 m/s 747 mmHg 94%
    16:00 -15°C° 0 mm 3 m/s 747 mmHg 94%
    17:00 -15°C° 0 mm 3 m/s 747 mmHg 95%
    18:00 -16°C° 0 mm 3 m/s 747 mmHg 95%
    19:00 -16°C° 0 mm 3 m/s 747 mmHg 95%
    20:00 -16°C° 0 mm 3 m/s 747 mmHg 96%
    21:00 -15°C° 0 mm 3 m/s 747 mmHg 95%
    22:00 -14°C° 0 mm 3 m/s 747 mmHg 95%
    23:00 -13°C° 0 mm 3 m/s 747 mmHg 95%

    24 Janeiro, Quinta-feira

    Tempo Temperatura Precipitação Vento Pressão Humidade
    00:00 -13°C° 0 mm 3 m/s 747 mmHg 95%
    01:00 -13°C° 0 mm 3 m/s 747 mmHg 95%
    02:00 -13°C° 0 mm 3 m/s 747 mmHg 95%
    03:00 -13°C° 0 mm 3 m/s 746 mmHg 95%
    04:00 -13°C° 0 mm 3 m/s 746 mmHg 95%
    05:00 -13°C° 0 mm 3 m/s 746 mmHg 95%
    06:00 -13°C° 0 mm 3 m/s 746 mmHg 95%
    07:00 -13°C° 0 mm 3 m/s 746 mmHg 95%
    08:00 -12°C° 0 mm 3 m/s 746 mmHg 94%
    09:00 -12°C° 0.1 mm 3 m/s 746 mmHg 94%
    10:00 -12°C° 0.1 mm 3 m/s 746 mmHg 94%
    11:00 -10°C° 0.1 mm 3 m/s 746 mmHg 94%
    12:00 -10°C° 0.2 mm 3 m/s 746 mmHg 94%
    13:00 -10°C° 0.2 mm 3 m/s 745 mmHg 94%
    14:00 -9°C° 0.2 mm 3 m/s 745 mmHg 94%
    15:00 -9°C° 0.1 mm 3 m/s 745 mmHg 95%
    16:00 -10°C° 0.1 mm 3 m/s 745 mmHg 95%
    17:00 -10°C° 0.1 mm 3 m/s 745 mmHg 95%
    18:00 -10°C° 0.1 mm 3 m/s 745 mmHg 95%
    19:00 -10°C° 0.1 mm 3 m/s 745 mmHg 95%
    20:00 -8°C° 0.1 mm 2 m/s 745 mmHg 95%
    21:00 -8°C° 0 mm 2 m/s 745 mmHg 95%
    22:00 -8°C° 0 mm 2 m/s 745 mmHg 96%
    23:00 -8°C° 0 mm 2 m/s 745 mmHg 96%

    25 Janeiro, Sexta-feira

    Tempo Temperatura Precipitação Vento Pressão Humidade
    00:00 -8°C° 0.1 mm 2 m/s 745 mmHg 96%
    01:00 -8°C° 0.1 mm 2 m/s 745 mmHg 96%
    02:00 -8°C° 0.1 mm 2 m/s 745 mmHg 96%
    03:00 -8°C° 0.1 mm 2 m/s 745 mmHg 96%
    04:00 -8°C° 0.1 mm 2 m/s 745 mmHg 96%
    05:00 -8°C° 0.1 mm 2 m/s 745 mmHg 97%
    06:00 -8°C° 0.1 mm 2 m/s 745 mmHg 97%
    07:00 -8°C° 0.1 mm 2 m/s 745 mmHg 97%
    08:00 -9°C° 0.1 mm 2 m/s 745 mmHg 97%
    09:00 -8°C° 0.1 mm 2 m/s 745 mmHg 97%
    10:00 -8°C° 0.1 mm 2 m/s 745 mmHg 96%
    11:00 -7°C° 0.1 mm 2 m/s 745 mmHg 96%
    12:00 -6°C° 0.1 mm 2 m/s 745 mmHg 96%
    13:00 -6°C° 0.1 mm 2 m/s 745 mmHg 95%
    14:00 -4°C° 0.1 mm 1 m/s 745 mmHg 95%
    15:00 -6°C° 0.1 mm 2 m/s 745 mmHg 96%
    16:00 -6°C° 0.1 mm 2 m/s 745 mmHg 96%
    17:00 -7°C° 0.1 mm 2 m/s 745 mmHg 97%
    18:00 -6°C° 0.1 mm 1 m/s 745 mmHg 97%
    19:00 -6°C° 0.1 mm 1 m/s 745 mmHg 97%
    20:00 -6°C° 0.1 mm 1 m/s 745 mmHg 97%
    21:00 -6°C° 0.1 mm 1 m/s 745 mmHg 97%
    22:00 -6°C° 0.1 mm 1 m/s 745 mmHg 97%
    23:00 -6°C° 0.1 mm 1 m/s 745 mmHg 97%
    Mostrar mais